Retour au catalogue

COSMOS 2074

ActifNavigationPO
NORAD 20577·PAYLOAD·🇷🇺 Russia

Lancé Apr 20, 1990 depuis Plesetsk Cosmodrome

Loading…

Prochains Passages (prochaines 24 heures)

TLE

FraisSource: Space-Track

Époque: Sep 14, 2026, 19:53 UTC

1 20577U 90036A   26257.82914008  .00000049  00000-0  35318-4 0  9990
2 20577  82.9433  39.7990 0025982 319.9276 207.2823 13.74887770826048

Suivez COSMOS 2074 en temps réel avec AllMySat

Download on the App Store